Location: Nebula Knoll Observatory
(43.6666°N, 71.0000°W)
Time: 19:47:57
(UTC-04:00)

Daily predictions for brighter satellites

Satellite Brightness Start Highest point End
(mag) Time Altitude Azimuth Time Altitude Azimuth Time Altitude Azimuth
Cosmos 540 Rocket 4.2 20:58:44 10° NNW 21:03:46 53° WSW 21:08:46 10° S
deb Chang Zheng 4 3.6 20:59:27 10° NNE 21:03:47 72° ESE 21:08:06 10° S
deb Kosmos-1763 4.2 21:00:57 10° SSW 21:04:50 77° ESE 21:08:46 10° NNE
GPS 2-04 Rocket1 4.4 21:03:21 10° WSW 21:06:43 22° SSW 21:10:01 10° SE
Cosmos 1500 Rocket 3.8 21:03:57 10° SSE 21:08:10 50° E 21:12:26 10° NNE
Cosmos 2221 4.5 21:06:56 10° NNW 21:10:39 29° W 21:14:21 10° SSW
ATLAS 5 CENTAUR R/B 3.2 21:10:36 10° WSW 21:15:20 47° NW 21:20:28 10° NNE
Cosmos 968 Rocket 3.5 21:14:47 10° SSW 21:19:58 84° ESE 21:25:13 10° NNE
Cosmos 2219 Rocket 4.3 21:22:12 10° N 21:25:30 16° NE 21:28:47 10° E
AVUM R/B 3.9 21:27:00 14° SSE 21:28:13 20° ESE 21:30:08 10° ENE
DELTA 2 R/B (1) 3.7 21:23:36 10° W 21:29:02 57° S 21:34:28 10° ESE
USA 245 3.4 21:27:20 13° SE 21:29:24 30° ENE 21:31:39 10° N
ATLAS CENTAUR R/B 2.9 21:26:47 10° NW 21:30:51 33° WSW 21:34:37 10° S
Terra 3.5 21:29:25 10° ESE 21:32:52 20° ENE 21:36:20 10° NNE
Cosmos 1553 Rocket 4.5 21:26:44 10° NNW 21:33:05 66° W 21:39:21 10° S
CZ-4 SHROUD 3.3 21:30:42 10° S 21:33:50 77° W 21:36:59 10° NNW
Envisat 3.4 21:28:57 10° S 21:33:59 66° WSW 21:39:04 10° NNW
Cosmos 1515 Rocket 3.8 21:29:41 10° NNW 21:34:08 72° W 21:38:31 10° S
Cosmos 2266 Rocket 4.0 21:28:22 10° S 21:34:38 68° E 21:40:49 10° NNE
YAOGAN 6 2.7 21:34:09 12° SSE 21:37:29 66° ENE 21:41:06 10° N
ARGOS 3.5 21:33:04 12° SE 21:37:57 52° ENE 21:43:12 10° N
MetOp-A 4.2 21:34:47 10° SSE 21:40:08 89° WSW 21:45:32 10° NNW
Cosmos 2219 4.0 21:35:33 10° SSE 21:40:30 31° ESE 21:45:29 10° NE
BREEZE-M DEB (TANK) 3.9 21:41:09 10° NW 21:42:54 22° N 21:44:46 10° ENE
Cosmos 405 3.0 21:43:00 10° N 21:46:40 90° W 21:49:43 14° S
Cosmos 2322 3.8 21:41:16 10° NNW 21:47:00 70° ENE 21:51:39 16° SE
Cosmos 1441 Rocket 4.1 21:45:20 10° SSW 21:49:01 49° WNW 21:52:42 10° N
Meteor 2-20 Rocket 4.4 21:43:33 10° S 21:49:42 82° E 21:55:53 10° N
Cosmos 1777 Rocket 4.1 21:45:03 10° SSW 21:50:20 87° WNW 21:55:37 10° NNE
Cosmos 2237 Rocket 4.3 21:47:18 10° N 21:50:55 17° NE 21:54:31 10° E
Cosmos 1633 Rocket 4.4 21:49:19 16° SE 21:51:33 24° E 21:55:05 10° NE
Sich 1 4.2 21:51:05 17° SE 21:53:27 27° E 21:57:10 10° NNE
Cosmos 2322 Rocket 3.4 21:49:39 10° NW 21:54:46 37° WSW 21:59:51 10° S
H-2A R/B 2.9 21:51:09 16° SE 21:55:00 39° ENE 21:59:59 10° N
SPOT 5 3.8 21:57:52 10° S 22:02:07 41° W 22:06:36 10° NNW
SL-16 R/B 3.5 21:58:13 10° NW 22:03:17 34° WSW 22:08:19 10° SSW
Cosmos 1805 Rocket 3.8 22:00:34 17° SSE 22:03:52 54° E 22:08:13 10° NNE
Cosmos 1908 4.2 22:01:24 10° NNW 22:05:08 45° W 22:08:45 11° SSW
Cosmos 1437 2.7 22:02:33 14° S 22:05:16 89° E 22:08:34 10° N
Cosmos 1726 2.9 22:02:09 10° N 22:05:43 38° ENE 22:07:30 23° SE
Cosmos 2151 3.0 22:01:57 10° S 22:06:09 83° W 22:10:23 10° N
Cosmos 2360 Rocket 2.2 22:00:55 10° NNW 22:06:36 82° WSW 22:10:47 19° SSE
SPOT 1/Viking Rocket 3.7 22:02:26 14° S 22:06:51 74° WSW 22:12:02 10° NNW
NOSS 3-1 (C) 3.9 22:03:18 11° S 22:08:22 37° ESE 22:14:09 10° NE
NOAA 11 4.2 22:04:08 16° SSE 22:08:30 89° E 22:14:00 10° NNW
Cosmos 1151 Rocket 3.7 22:04:21 10° NNW 22:08:31 51° W 22:12:25 12° SSW
Nadezhda 2 Rocket 4.4 22:03:20 10° S 22:09:29 84° E 22:15:38 10° N
SAR-Lupe-2 4.5 22:13:58 24° ESE 22:15:28 35° ENE 22:18:46 10° N
Cosmos 1680 Rocket 3.6 22:10:56 10° NNW 22:16:11 74° WSW 22:19:50 20° S
Cosmos 1707 Rocket 3.5 22:16:23 10° N 22:20:45 80° E 22:23:15 25° SSE
SWAS 4.4 22:21:16 10° NNW 22:25:36 83° WSW 22:27:48 29° SSE
Cosmos 1666 Rocket 3.5 22:23:05 23° S 22:25:42 68° E 22:30:06 10° NNE
DMSP B5D2-2 4.4 22:20:57 10° NNE 22:26:01 49° E 22:28:51 24° SSE
Meteor 2-11 Rocket 4.4 22:21:01 10° N 22:27:13 86° E 22:31:26 22° S
Cosmos 2150 Rocket 4.4 22:24:58 23° SSE 22:28:04 46° ESE 22:33:16 10° NNE
Cosmos 2227 Rocket 3.5 22:31:11 20° ESE 22:32:16 21° E 22:36:26 10° NE
Cosmos 1898 Rocket 3.8 22:29:54 25° SSE 22:32:37 48° ESE 22:37:37 10° NNE
CZ-4B R/B 4.5 22:28:19 10° N 22:33:25 50° WNW 22:38:26 10° SW
Cosmos 2333 Rocket 3.3 22:28:24 10° N 22:33:40 35° NE 22:37:13 18° ESE
CZ-4C R/B 3.3 22:34:28 30° S 22:36:00 60° WSW 22:39:28 10° NNW
Cosmos 1300 3.0 22:33:37 10° NNW 22:37:26 63° W 22:39:16 28° SSW
Cosmos 1470 Rocket 4.2 22:37:46 30° SE 22:38:59 37° E 22:42:57 10° NNE
SL-08 RB Rocket 4.4 22:36:32 20° SSW 22:39:25 47° W 22:43:46 10° NNW
Cosmos 1933 Rocket 4.3 22:39:17 30° SE 22:40:37 38° E 22:44:45 10° NNE
SL-16 R/B 4.2 22:37:25 10° N 22:41:20 19° NE 22:45:13 10° E
Meteor 2-10 4.4 22:35:52 10° N 22:41:31 62° ENE 22:44:28 29° SSE
Cosmos 2058 3.6 22:39:47 15° SSW 22:42:57 52° W 22:46:59 10° N
Cosmos 1626 3.2 22:44:32 28° E 22:44:50 28° E 22:48:05 10° NNE
COSMOS 2428 2.7 22:39:43 10° NNW 22:45:25 81° WSW 22:48:24 29° SSE
Meteor 1-4 Rocket 2.5 22:43:39 10° N 22:47:28 82° E 22:48:33 44° SSE
Cosmos 2242 Rocket 3.6 22:47:39 10° N 22:52:07 81° W 22:54:01 34° S
Cosmos 220 Rocket 4.4 22:52:18 38° SE 22:53:13 44° ESE 22:57:26 10° NNE
Landsat 7 4.5 22:51:46 24° SSW 22:54:24 49° W 22:59:02 10° NNW
SL-23 DEB 4.2 22:50:40 10° WNW 22:54:43 39° SW 22:55:10 37° SSW
USA 32 4.1 22:50:21 10° N 22:55:38 77° W 22:58:24 29° S
NOSS 0 Rocket 4.1 22:52:10 10° NNW 22:58:17 62° ENE 23:01:28 29° SE
Spot 4 3.9 22:57:34 34° S 22:59:41 80° WSW 23:04:34 10° NNW
Cosmos 2297 Rocket 3.3 22:59:14 24° ESE 23:00:00 25° ESE 23:04:32 10° NE
Cosmos 1455 2.5 22:56:55 10° N 23:00:39 52° E 23:01:18 45° ESE
IGS 5A 3.8 23:00:13 35° SSW 23:01:46 60° W 23:05:55 10° NNW
SeaSat 1 2.9 23:01:34 30° ESE 23:03:48 53° ENE 23:08:37 10° NNW
NOSS 3-1 (A) 3.3 23:05:11 17° SSW 23:09:50 76° ESE 23:16:25 10° NE
Terra 2.4 23:08:07 28° SSW 23:10:16 49° W 23:14:53 10° NNW
Cosmos 2219 Rocket 2.1 23:04:44 10° NNW 23:10:22 82° ENE 23:12:41 37° SSE
DELTA 2 R/B (1) 4.2 23:10:01 10° W 23:15:00 35° SSW 23:15:33 34° S
Cosmos 292 Rocket 3.8 23:10:22 10° NNW 23:15:07 73° WSW 23:16:37 43° S
Cosmos 1703 3.8 23:16:03 34° SW 23:17:26 54° W 23:21:18 10° N
Cosmos 1862 Rocket 3.4 23:14:27 10° N 23:18:50 89° E 23:19:53 52° S
GEOS 3 Rocket 3.8 23:19:08 32° ESE 23:21:34 67° NE 23:26:43 10° NNW
Cosmos 1980 3.7 23:16:24 10° NNW 23:22:05 74° ENE 23:24:17 38° SE
Cosmos 2219 4.4 23:19:03 10° SW 23:24:29 42° WNW 23:29:58 10° NNE
Cosmos 1271 Rocket 3.8 23:22:03 10° NNW 23:25:33 35° W 23:26:28 30° SW
Cosmos 1933 4.0 23:21:49 10° N 23:25:41 42° ENE 23:26:12 40° E
Cosmos 1346 3.4 23:28:52 63° NW 23:28:52 63° NW 23:31:37 10° N
ATLAS 2AS CENTAUR R/B 3.2 23:29:35 33° SSE 23:32:38 50° ESE 23:40:17 10° NE
H-2A R/B 3.5 23:31:47 20° SW 23:34:28 30° W 23:39:10 10° NW
Cosmos 1241 Rocket 4.4 23:33:02 37° S 23:35:29 64° ESE 23:41:40 10° NE
Cosmos 2237 Rocket 2.1 23:30:06 10° NNW 23:35:51 87° ENE 23:37:51 43° SSE
COS B Rocket 3.4 23:32:32 10° N 23:36:03 55° E 23:36:03 55° E
Cosmos 1937 Rocket 3.8 23:34:58 26° SW 23:37:53 64° WNW 23:43:05 10° NNE
Cosmos 2082 3.7 23:36:11 41° S 23:38:13 71° ESE 23:43:55 10° NNE
ALOS 2 3.1 23:45:44 41° ESE 23:46:34 47° ENE 23:50:47 10° N
Cosmos 1869 Rocket 3.9 23:47:19 49° ESE 23:47:45 51° E 23:52:06 10° NNE
Cosmos 192 4.2 23:43:20 10° NNW 23:48:17 85° WSW 23:49:22 55° SSE
Cosmos 1269 Rocket 4.2 23:43:02 10° NNW 23:48:20 63° ENE 23:49:56 43° SE
Cosmos 389 Rocket 3.7 23:46:54 10° N 23:50:07 33° ENE 23:50:07 33° ENE
